15min,AgWx,beryljct,423,27JAN2019:00:00:00,29.1,12.9,27.6,27.7,27.9,28.6,27.5,81,83,78,0.415,22.8,23.4,21.9,5.502,3.7,308,8.8,5.5,-0.00006,-0.00006,.,33.8,25,0,0,35.6,9.86,0.00,0.00
15min,AgWx,beryljct,423,27JAN2019:00:15:00,28.6,12.88,26.5,25.8,26.2,27.7,25.4,85,88,81,0.415,22.2,22.9,21.6,3.99,4.0,315,4.4,5.3,-0.00006,-0.00006,.,33.8,25,0,0,35.5,9.86,0.00,0.00
15min,AgWx,beryljct,423,27JAN2019:00:30:00,28.2,12.88,27.5,26.2,26.1,26.5,25.8,87,88,86,0.417,22.8,23.3,22.5,3.047,3.2,322,12,4.4,-0.00008,-0.00010,.,33.8,24,0,0,35.9,9.87,0.01,0.00
15min,AgWx,beryljct,423,27JAN2019:00:45:00,27.8,12.87,25.0,24.8,25.6,27.1,24.7,87,89,85,0.402,22.2,23.7,21.2,1.25,3.0,326,11,3.9,-0.00008,-0.00010,.,33.8,24,0,0,35.4,9.87,0.00,0.00
15min,AgWx,beryljct,423,27JAN2019:01:00:00,27.4,12.87,26.0,24.9,24.9,25.7,24.6,89,91,88,0.408,22.2,23.2,21.7,4.45,3.1,327,10,4.8,-0.00009,-0.00010,.,33.8,24,0,0,35.3,9.87,0.00,0.00
15min,AgWx,beryljct,423,27JAN2019:01:15:00,27.2,12.86,26.7,26.1,25.4,26.1,24.9,89,90,89,0.426,22.6,23.3,22.2,4.297,4.2,311,6.0,5.2,-0.00007,-0.00007,.,33.8,24,0,0,35.7,9.86,0.00,0.00
15min,AgWx,beryljct,423,27JAN2019:01:30:00,27.3,12.86,28.8,28.4,27.2,28.4,26.1,86,89,82,0.434,23.5,23.9,23.1,5.108,4.7,304,8.4,6.1,-0.00005,-0.00005,.,33.8,24,0,0,35.5,9.86,0.00,0.00
15min,AgWx,beryljct,423,27JAN2019:01:45:00,27.9,12.86,29.7,30.1,29.5,30.4,28.4,79,82,75,0.426,23.6,24.3,23.3,4.932,5.1,302,24,7.3,-0.00002,-0.00001,.,33.8,25,0,0,35.9,9.86,0.00,0.00
15min,AgWx,beryljct,423,27JAN2019:02:00:00,28.5,12.86,30.6,30.2,30.4,31.1,29.8,75,77,73,0.426,23.5,23.8,23.0,2.061,2.8,360,24,4.9,-0.00007,-0.00008,.,33.8,24,0,0,35.8,9.86,0.00,0.00
15min,AgWx,beryljct,423,27JAN2019:02:15:00,28.9,12.83,29.7,29.5,29.7,30.2,28.8,77,79,75,0.422,23.2,23.8,22.6,3.332,2.3,344,12,3.4,-0.00009,-0.00011,.,33.8,24,0,0,35.5,9.87,0.00,0.00
15min,AgWx,beryljct,423,27JAN2019:02:30:00,28.8,12.83,29.1,28.2,28.1,29.5,27.3,80,82,76,0.424,22.7,23.2,21.9,2.784,2.8,317,4.5,3.7,-0.00008,-0.00009,.,33.8,24,0,0,35.4,9.87,0.00,0.00
15min,AgWx,beryljct,423,27JAN2019:02:45:00,28.6,12.82,29.5,28.7,28.4,28.8,27.9,80,81,78,0.422,22.9,23.4,22.4,2.17,2.7,304,1.7,3.7,-0.00008,-0.00009,.,33.8,24,0,0,35.7,9.87,0.00,0.00
15min,AgWx,beryljct,423,27JAN2019:03:00:00,28.3,12.82,27.6,27.4,27.7,28.8,27.4,81,82,78,0.414,22.7,23.1,21.9,2.017,1.9,335,9.3,2.7,-0.00011,-0.00014,.,33.8,25,0,0,35.6,9.87,0.00,0.00
15min,AgWx,beryljct,423,27JAN2019:03:15:00,28.0,12.81,25.7,25.3,26.5,27.4,25.3,85,87,82,0.406,22.5,22.8,22.1,3.003,2.2,29,38,3.7,-0.00011,-0.00013,.,33.8,24,0,0,35.3,9.87,0.00,0.00
15min,AgWx,beryljct,423,27JAN2019:03:30:00,27.6,12.8,25.7,24.9,24.9,25.4,24.7,89,90,87,0.412,22.1,22.6,21.8,1.863,2.1,101,38,3.5,-0.00011,-0.00014,.,33.8,24,0,0,35.7,9.87,0.00,0.00
15min,AgWx,beryljct,423,27JAN2019:03:45:00,27.1,12.8,26.6,25.9,25.4,25.9,25.0,90,91,90,0.428,22.9,23.4,22.5,4.253,2.8,165,10,4.3,-0.00010,-0.00012,.,33.8,24,0,0,35.4,9.87,0.00,0.00
15min,AgWx,beryljct,423,27JAN2019:04:00:00,27.0,12.81,26.7,25.9,25.9,26.1,25.7,89,90,89,0.425,23.2,23.4,22.9,1.14,2.8,200,5.1,4.2,-0.00010,-0.00011,.,33.8,25,0,0,35.9,9.87,0.00,0.00
15min,AgWx,beryljct,423,27JAN2019:04:15:00,26.9,12.8,26.2,25.8,26.0,26.2,25.8,90,90,89,0.422,23.4,23.6,23.0,0.636,0.5,131,25,1.0,-0.00018,-0.00026,.,33.8,25,0,0,35.6,9.87,0.00,0.00
15min,AgWx,beryljct,423,27JAN2019:04:30:00,26.5,12.78,23.5,23.3,24.7,25.8,23.3,90,91,89,0.385,22.1,23.3,20.8,2.455,0.7,122,0.0,2.6,-0.00017,-0.00024,.,33.8,25,0,0,35.4,9.87,0.00,0.00
15min,AgWx,beryljct,423,27JAN2019:04:45:00,26.1,12.77,23.9,23.3,23.3,23.4,23.1,91,92,90,0.391,21.0,21.3,20.8,1.644,2.4,308,36,3.9,-0.00010,-0.00013,.,33.8,24,0,0,35.8,9.87,0.00,0.00
15min,AgWx,beryljct,423,27JAN2019:05:00:00,25.8,12.76,24.9,24.1,23.6,24.1,23.3,92,92,92,0.405,21.6,22.1,21.2,0.46,1.2,308,0.1,1.7,-0.00014,-0.00019,.,33.8,25,0,0,35.6,9.87,0.00,0.00
15min,AgWx,beryljct,423,27JAN2019:05:15:00,25.8,12.75,24.9,24.5,24.3,24.6,24.1,92,92,92,0.411,22.3,22.6,22.1,1.25,0.7,308,0.0,1.3,-0.00017,-0.00024,.,33.8,24,0,0,35.7,9.87,0.00,0.00
15min,AgWx,beryljct,423,27JAN2019:05:30:00,25.7,12.63,24.7,23.6,23.8,24.5,23.3,91,92,91,0.398,21.6,22.4,21.1,0.68,1.0,308,0.1,2.2,-0.00015,-0.00021,.,33.8,24,0,0,35.7,9.87,0.00,0.00
15min,AgWx,beryljct,423,27JAN2019:05:45:00,25.4,12.74,25.3,24.6,24.4,24.7,23.7,92,93,92,0.413,22.4,22.7,21.8,0,0.1,308,0.0,0.7,-0.00019,-0.00031,.,33.8,24,0,0,35.6,9.87,0.00,0.00
15min,AgWx,beryljct,423,27JAN2019:06:00:00,25.3,12.75,25.2,24.6,24.6,24.9,24.4,92,92,91,0.413,22.5,22.8,22.2,0.57,0.1,304,1.1,0.7,-0.00020,-0.00031,.,33.8,25,0,0,35.5,9.87,0.00,0.00
15min,AgWx,beryljct,423,27JAN2019:06:15:00,25.3,12.74,24.8,24.2,24.4,24.7,24.1,92,92,92,0.408,22.4,22.7,22.0,0,0.5,284,29,1.0,-0.00018,-0.00026,.,33.8,25,0,0,35.7,9.87,0.00,0.00
15min,AgWx,beryljct,423,27JAN2019:06:30:00,25.1,12.74,24.9,24.0,24.1,24.2,23.7,92,93,92,0.407,22.1,22.3,21.7,0,0.1,234,0.0,0.7,-0.00020,-0.00031,.,33.8,25,0,0,35.6,9.87,0.00,0.00
15min,AgWx,beryljct,423,27JAN2019:06:45:00,25.0,12.73,24.7,24.5,24.2,24.5,24.0,93,93,92,0.414,22.4,22.6,22.1,0,0.0,235,0.0,0.4,-0.00020,-0.00031,.,33.8,25,0,0,35.4,9.87,0.00,0.00
15min,AgWx,beryljct,423,27JAN2019:07:00:00,24.9,12.72,23.4,22.7,23.1,24.5,22.5,92,92,91,0.383,21.0,22.5,20.4,1.359,0.5,254,7.4,1.4,0.00001,0.00002,.,33.8,24,0,0,35.6,9.87,0.00,0.00
15min,AgWx,beryljct,423,27JAN2019:07:15:00,24.7,12.72,25.4,24.5,23.2,24.5,22.7,92,93,92,0.414,21.3,22.6,20.7,1.447,2.6,324,9.2,3.5,0.00003,0.00005,.,33.8,25,0,0,35.6,9.87,0.00,0.00
15min,AgWx,beryljct,423,27JAN2019:07:30:00,24.6,12.72,23.6,23.0,23.5,24.6,22.9,91,92,90,0.382,21.2,22.6,20.5,1.03,1.1,333,0.0,1.7,0.00002,0.00003,.,33.8,24,0,0,35.6,9.87,0.00,0.00
15min,AgWx,beryljct,423,27JAN2019:07:45:00,24.4,12.71,24.2,23.5,23.4,23.7,23.0,91,92,91,0.395,21.3,21.6,20.7,1.644,1.5,333,0.1,2.4,0.00003,0.00004,.,33.8,24,2,0,35.7,9.87,0.00,0.00
15min,AgWx,beryljct,423,27JAN2019:08:00:00,24.4,12.73,24.2,23.5,23.6,23.9,23.4,92,92,92,0.397,21.6,21.9,21.3,0,0.7,329,7.0,1.6,0.00004,0.00005,.,33.8,24,9,0,35.5,9.87,0.00,0.00
15min,AgWx,beryljct,423,27JAN2019:08:15:00,24.5,12.74,24.0,23.4,23.2,23.7,22.8,92,92,91,0.393,21.2,21.7,20.7,1.885,1.7,332,15,3.4,0.00010,0.00012,.,33.8,24,23,0,35.5,9.87,0.00,0.00
15min,AgWx,beryljct,423,27JAN2019:08:30:00,24.6,12.79,23.8,23.1,23.1,23.5,23.0,92,92,91,0.389,21.0,21.5,20.8,2.324,1.4,348,0.7,2.3,0.00017,0.00019,.,33.8,25,44,0,35.6,9.87,0.01,0.00
15min,AgWx,beryljct,423,27JAN2019:08:45:00,24.9,12.94,25.6,24.7,24.2,24.7,23.1,91,92,91,0.410,22.1,22.4,21.0,2.302,2.1,351,5.1,3.2,0.00027,0.00030,.,33.8,24,72,0,35.8,9.87,0.00,0.00
15min,AgWx,beryljct,423,27JAN2019:09:00:00,25.7,13.58,28.0,27.2,25.7,27.2,24.7,91,91,90,0.451,23.3,24.7,22.3,3.968,2.9,345,8.6,4.2,0.00047,0.00052,.,33.8,24,160,0,36.3,9.87,0.00,0.00
15min,AgWx,beryljct,423,27JAN2019:09:15:00,27.3,14.88,28.4,27.8,27.6,27.9,27.3,86,90,85,0.436,24.1,24.6,23.6,2.894,3.4,344,9.2,4.3,0.00052,0.00060,.,33.8,25,157,0,36.1,9.87,0.00,0.00
15min,AgWx,beryljct,423,27JAN2019:09:30:00,29.5,14.76,29.0,28.6,28.3,28.7,27.8,84,86,83,0.442,24.1,24.7,23.6,2.696,2.2,7.8,11,3.6,0.00086,0.00095,.,33.8,25,280,0,42.5,9.87,0.00,0.00
15min,AgWx,beryljct,423,27JAN2019:09:45:00,32.4,14.74,30.4,30.2,29.3,30.2,28.6,82,83,80,0.459,24.4,25.2,24.0,1.885,1.8,359,18,3.2,0.00119,0.00130,.,33.8,25,381,0,49.0,9.87,0.00,0.00
15min,AgWx,beryljct,423,27JAN2019:10:00:00,35.9,14.63,31.8,31.4,31.3,32.6,30.2,78,82,75,0.461,25.3,26.6,24.6,0.482,0.7,360,21,2.1,0.00137,0.00148,.,33.8,25,395,0,59.1,9.87,0.00,0.00
15min,AgWx,beryljct,423,27JAN2019:10:15:00,37.4,13.68,32.7,32.2,31.7,32.2,31.4,75,78,72,0.456,24.8,25.4,24.0,2.214,1.0,1.4,24,2.6,0.00086,0.00094,.,33.8,24,219,0,48.0,9.86,0.00,0.00
15min,AgWx,beryljct,423,27JAN2019:10:30:00,37.4,13.68,33.2,32.7,32.5,32.8,32.2,73,75,72,0.455,24.9,25.7,24.4,2.411,2.9,340,16,4.5,0.00093,0.00107,.,33.8,24,232,0,43.8,9.87,0.00,0.00
15min,AgWx,beryljct,423,27JAN2019:10:45:00,37.0,14.55,33.4,33.0,32.7,33.2,32.5,72,74,70,0.459,24.7,25.7,23.8,1.556,2.2,337,14,3.6,0.00099,0.00112,.,33.8,25,247,0,44.2,9.87,0.00,0.00
15min,AgWx,beryljct,423,27JAN2019:11:00:00,37.1,14.65,33.7,33.2,33.3,33.5,33.0,71,74,69,0.442,24.9,25.9,24.2,2.631,2.8,348,20,4.8,0.00115,0.00132,.,33.8,26,293,0,46.2,9.87,0.00,0.00
15min,AgWx,beryljct,423,27JAN2019:11:15:00,37.4,14.66,34.2,33.8,33.4,33.8,33.2,69,71,68,0.469,24.5,25.6,23.7,2.981,2.7,4.6,18,5.0,0.00122,0.00140,.,33.8,26,312,0,47.1,9.86,0.00,0.00
15min,AgWx,beryljct,423,27JAN2019:11:30:00,37.8,14.66,34.7,34.2,33.8,34.2,33.5,69,72,68,0.469,24.9,25.8,24.3,5.744,4.2,2.6,12,6.3,0.00133,0.00155,.,33.8,25,347,0,46.8,9.86,0.00,0.00
15min,AgWx,beryljct,423,27JAN2019:11:45:00,38.3,14.64,35.0,34.7,34.4,34.9,34.1,69,71,68,0.464,25.4,26.4,24.6,6.204,4.7,349,19,6.5,0.00149,0.00174,.,33.8,25,397,0,47.8,9.87,0.00,0.00
15min,AgWx,beryljct,423,27JAN2019:12:00:00,38.9,14.6,35.7,34.8,34.8,35.3,34.5,68,70,67,0.465,25.3,26.5,24.7,3.201,4.7,1.7,11,6.4,0.00147,0.00173,.,33.8,25,382,0,47.8,9.86,0.00,0.00
15min,AgWx,beryljct,423,27JAN2019:12:15:00,39.3,14.62,35.0,34.7,35.0,35.4,34.7,68,69,65,0.470,25.4,26.0,24.6,6.292,6.0,11,9.5,8.8,0.00139,0.00168,.,33.8,25,355,0,46.2,9.86,0.00,0.00
15min,AgWx,beryljct,423,27JAN2019:12:30:00,39.5,14.61,36.3,35.7,35.4,35.9,34.7,69,70,67,0.481,26.2,27.1,25.7,4.669,5.2,3.7,13,8.0,0.00206,0.00236,.,33.8,26,589,0,46.5,9.86,0.00,0.00
15min,AgWx,beryljct,423,27JAN2019:12:45:00,40.6,14.31,39.2,38.1,36.7,38.1,35.8,67,69,65,0.520,26.9,28.3,26.1,3.836,2.5,34,30,4.9,0.00233,0.00259,.,33.8,24,612,0,53.2,9.86,0.00,0.00
15min,AgWx,beryljct,423,27JAN2019:13:00:00,42.6,14.22,38.9,38.5,37.9,38.6,37.4,64,67,62,0.498,27.0,28.0,26.4,3.705,2.3,96,22,5.2,0.00256,0.00283,.,33.8,25,643,0,60.5,9.86,0.00,0.00
15min,AgWx,beryljct,423,27JAN2019:13:15:00,44.1,14.1,39.9,39.2,38.9,39.7,38.3,62,65,60,0.498,27.0,28.7,26.2,1.666,2.3,62,28,4.9,0.00204,0.00229,.,33.8,24,515,0,56.8,9.86,0.00,0.00
15min,AgWx,beryljct,423,27JAN2019:13:30:00,45.0,14.1,40.8,39.5,39.5,40.7,38.9,61,63,59,0.501,27.3,28.5,26.4,0.833,1.4,113,30,4.0,0.00202,0.00223,.,33.8,24,501,0,56.7,9.85,0.00,0.00
15min,AgWx,beryljct,423,27JAN2019:13:45:00,45.9,14.05,41.5,40.9,40.4,41.4,39.4,60,62,57,0.512,27.7,29.4,26.8,4.669,1.7,55,64,5.0,0.00241,0.00266,.,33.8,24,581,0,57.2,9.85,0.00,0.00
15min,AgWx,beryljct,423,27JAN2019:14:00:00,46.8,14.12,42.1,41.8,41.6,42.4,41.0,57,60,55,0.501,27.5,29.5,26.6,0,3.3,28,22,6.7,0.00233,0.00267,.,33.8,24,554,0,52.1,9.85,0.00,0.00
15min,AgWx,beryljct,423,27JAN2019:14:15:00,47.7,14.13,42.6,42.8,42.4,42.8,41.8,56,57,54,0.519,27.7,28.5,26.8,3.529,2.6,16,34,5.6,0.00230,0.00261,.,33.8,24,538,0,53.2,9.85,0.00,0.00
15min,AgWx,beryljct,423,27JAN2019:14:30:00,48.6,13.98,43.0,43.0,42.9,43.2,42.5,54,57,52,0.498,27.5,28.8,26.8,2.258,3.6,30,24,6.2,0.00213,0.00249,.,33.8,24,497,0,51.4,9.85,0.00,0.00
15min,AgWx,beryljct,423,27JAN2019:14:45:00,49.3,13.99,44.4,43.6,43.5,44.0,42.8,54,57,52,0.518,27.8,29.4,26.6,3.683,3.1,26,22,7.4,0.00210,0.00244,.,33.8,24,484,0,51.4,9.85,0.00,0.00
15min,AgWx,beryljct,423,27JAN2019:15:00:00,49.9,14.07,44.7,44.8,44.1,44.8,43.5,54,57,52,0.569,28.5,30.2,27.3,4.582,4.8,22,14,7.3,0.00199,0.00241,.,33.8,24,451,0,50.2,9.85,0.00,0.00
15min,AgWx,beryljct,423,27JAN2019:15:15:00,50.3,13.99,44.7,44.5,44.5,44.9,44.2,53,56,51,0.512,28.3,30.0,27.2,3.31,3.9,26,23,6.5,0.00183,0.00221,.,33.8,24,417,0,50.5,9.84,0.00,0.00
15min,AgWx,beryljct,423,27JAN2019:15:30:00,50.7,13.95,45.5,45.4,44.8,45.6,44.4,53,54,51,0.536,28.5,30.0,27.8,1.82,2.2,19,47,5.6,0.00171,0.00197,.,33.8,24,400,0,52.7,9.84,0.00,0.00
15min,AgWx,beryljct,423,27JAN2019:15:45:00,51.5,13.93,45.9,45.7,45.6,46.1,45.2,52,55,50,0.521,28.9,30.6,27.9,3.573,2.7,356,40,4.9,0.00155,0.00185,.,33.8,24,361,0,54.1,9.84,0.00,0.00
15min,AgWx,beryljct,423,27JAN2019:16:00:00,52.0,13.93,45.9,45.7,45.8,46.1,45.5,51,53,50,0.524,28.7,29.9,28.0,2.061,2.6,352,20,5.8,0.00123,0.00150,.,33.8,24,294,0,52.7,9.84,0.00,0.00
15min,AgWx,beryljct,423,27JAN2019:16:15:00,51.8,13.93,45.8,45.5,45.6,45.9,45.4,53,56,50,0.545,29.5,30.8,28.2,3.946,3.7,42,16,5.9,0.00096,0.00128,.,33.8,24,231,0,50.8,9.84,0.00,0.00
15min,AgWx,beryljct,423,27JAN2019:16:30:00,51.5,13.99,45.7,45.5,45.6,45.7,45.4,53,55,51,0.535,29.4,30.4,28.4,4.231,3.6,39,17,5.4,0.00087,0.00118,.,33.9,24,213,0,50.9,9.84,0.00,0.00
15min,AgWx,beryljct,423,27JAN2019:16:45:00,50.9,14.03,45.5,45.3,45.3,45.5,45.2,54,56,52,0.548,29.7,30.7,28.6,2.85,4.5,37,6.2,6.6,0.00081,0.00115,.,33.9,24,191,0,49.5,9.84,0.00,0.00
15min,AgWx,beryljct,423,27JAN2019:17:00:00,50.5,14.02,45.8,45.5,45.3,45.5,45.1,55,57,53,0.561,30.0,30.7,29.3,4.823,3.7,28,12,5.0,0.00035,0.00047,.,33.9,24,164,0,49.8,9.84,0.00,0.00
15min,AgWx,beryljct,423,27JAN2019:17:15:00,49.9,14.01,45.0,44.4,44.9,45.5,44.2,56,58,53,0.561,30.0,30.5,29.0,3.442,3.6,353,8.1,5.5,0.00026,0.00035,.,34.0,24,117,0,47.4,9.84,0.00,0.00
15min,AgWx,beryljct,423,27JAN2019:17:30:00,48.7,14.05,42.2,42.9,43.8,44.5,42.8,57,59,56,0.546,29.6,30.2,29.3,3.639,2.8,336,16,3.9,0.00012,0.00018,.,34.0,24,71,0,44.6,9.84,0.00,0.00
15min,AgWx,beryljct,423,27JAN2019:17:45:00,46.6,13.2,40.9,41.3,41.8,42.9,41.1,60,61,58,0.537,29.0,29.7,28.6,2.609,3.2,300,13,3.7,0.00002,0.00005,.,34.1,24,17,0,40.6,9.84,0.00,0.00
15min,AgWx,beryljct,423,27JAN2019:18:00:00,43.4,13.14,38.0,37.4,38.8,41.2,36.0,67,75,61,0.514,28.7,30.2,27.2,0,2.2,273,25,3.2,-0.00008,-0.00009,.,34.1,24,5,0,37.3,9.84,0.00,0.00
15min,AgWx,beryljct,423,27JAN2019:18:15:00,40.5,13.11,38.6,38.9,38.4,39.4,36.9,67,71,64,0.519,28.4,29.2,27.2,3.201,1.2,330,19,3.3,-0.00017,-0.00022,.,34.2,24,1,0,35.7,9.85,0.00,0.00
15min,AgWx,beryljct,423,27JAN2019:18:30:00,38.6,13.08,35.4,35.9,37.8,39.3,35.9,67,69,64,0.493,27.7,28.9,26.7,2.521,2.9,306,6.3,3.5,-0.00005,-0.00004,.,34.2,24,0,0,36.0,9.84,0.00,0.00
15min,AgWx,beryljct,423,27JAN2019:18:45:00,36.7,13.06,33.8,33.8,34.2,35.8,33.6,74,77,69,0.497,26.9,27.8,25.8,0,0.6,315,0.5,2.3,-0.00021,-0.00030,.,34.3,24,0,0,35.6,9.84,0.00,0.00
15min,AgWx,beryljct,423,27JAN2019:19:00:00,35.2,13.05,33.6,32.9,33.7,34.3,32.8,77,80,76,0.503,27.4,27.8,26.9,3.113,1.0,304,17,3.2,-0.00018,-0.00024,.,34.3,24,0,0,35.4,9.85,0.01,0.00
15min,AgWx,beryljct,423,27JAN2019:19:15:00,34.2,13.05,38.4,36.7,33.8,36.7,32.6,79,83,73,0.541,28.0,29.0,26.9,3.047,3.6,271,5.4,4.3,-0.00006,-0.00006,.,34.3,24,0,0,35.7,9.85,0.00,0.00
15min,AgWx,beryljct,423,27JAN2019:19:30:00,33.7,12.9,34.3,33.7,33.9,36.9,32.9,77,80,70,0.508,27.6,28.9,26.8,2.411,2.4,276,16,3.4,-0.00010,-0.00012,.,34.4,24,0,0,35.4,9.85,0.00,0.00
15min,AgWx,beryljct,423,27JAN2019:19:45:00,33.1,13.01,30.5,30.9,32.8,34.0,30.6,77,81,74,0.473,26.5,27.7,24.7,3.047,3.3,319,5.3,3.7,-0.00006,-0.00007,.,34.4,24,0,0,35.5,9.85,0.01,0.00
15min,AgWx,beryljct,423,27JAN2019:20:00:00,32.6,13,31.9,31.5,31.7,32.5,30.7,80,84,79,0.482,26.3,27.8,25.5,2.959,3.3,317,4.1,4.4,-0.00007,-0.00008,.,34.4,25,0,0,35.7,9.85,0.00,0.00
15min,AgWx,beryljct,423,27JAN2019:20:15:00,32.1,12.97,31.4,31.5,31.4,32.3,30.0,81,84,79,0.469,26.2,27.5,24.8,1.973,3.1,311,5.3,4.2,-0.00008,-0.00009,.,34.4,24,0,0,35.7,9.85,0.00,0.00
15min,AgWx,beryljct,423,27JAN2019:20:30:00,31.5,12.99,31.6,31.8,31.5,32.6,30.1,80,84,76,0.465,26.0,27.5,24.0,0.767,1.3,321,6.8,2.7,-0.00015,-0.00020,.,34.4,24,0,0,35.6,9.86,0.00,0.00
15min,AgWx,beryljct,423,27JAN2019:20:45:00,30.9,12.98,31.5,31.4,31.5,32.1,30.9,80,83,77,0.493,26.1,27.0,25.2,1.688,0.5,347,26,2.1,-0.00020,-0.00030,.,34.4,24,0,0,35.6,9.86,0.00,0.00
15min,AgWx,beryljct,423,27JAN2019:21:00:00,30.6,12.96,31.3,30.2,29.9,31.4,28.9,86,88,82,0.499,26.1,27.1,25.2,2.477,2.1,186,50,3.4,-0.00012,-0.00015,.,34.4,24,0,0,35.7,9.86,0.00,0.00
15min,AgWx,beryljct,423,27JAN2019:21:15:00,30.3,12.97,29.5,29.2,29.9,30.9,29.2,86,88,84,0.470,26.3,27.4,25.3,0,1.0,195,0.0,2.7,-0.00017,-0.00023,.,34.4,24,0,0,35.8,9.86,0.00,0.00
15min,AgWx,beryljct,423,27JAN2019:21:30:00,29.9,12.96,28.4,28.0,29.3,31.6,27.9,86,89,82,0.457,25.7,28.1,24.5,0,0.5,10,22,2.4,-0.00020,-0.00029,.,34.4,25,0,0,35.6,9.86,0.00,0.00
15min,AgWx,beryljct,423,27JAN2019:21:45:00,29.5,12.8,32.7,30.8,28.2,30.8,27.2,88,89,87,0.502,25.2,27.3,24.2,3.442,2.2,306,9.7,3.5,-0.00012,-0.00015,.,34.4,24,0,0,35.8,9.86,0.00,0.00
15min,AgWx,beryljct,423,27JAN2019:22:00:00,29.5,12.93,28.5,28.2,30.5,33.5,27.4,81,86,75,0.451,25.4,27.7,21.8,4.034,3.4,300,8.9,4.2,-0.00007,-0.00007,.,34.4,24,0,0,35.6,9.86,0.00,0.00
15min,AgWx,beryljct,423,27JAN2019:22:15:00,29.1,12.92,25.9,25.9,27.1,28.8,25.9,87,89,84,0.422,23.6,25.3,22.5,3.551,3.7,326,7.2,4.6,-0.00007,-0.00008,.,34.4,24,0,0,35.6,9.86,0.00,0.00
15min,AgWx,beryljct,423,27JAN2019:22:30:00,28.6,12.92,29.5,28.3,27.2,28.3,25.6,89,91,87,0.475,24.4,25.9,22.6,1.995,2.7,336,66,4.0,-0.00010,-0.00012,.,34.4,25,0,0,35.8,9.86,0.00,0.00
15min,AgWx,beryljct,423,27JAN2019:22:45:00,28.5,12.91,28.2,27.7,28.0,28.7,27.1,88,90,87,0.457,25.0,26.0,23.9,3.595,2.3,122,41,4.3,-0.00012,-0.00014,.,34.4,24,0,0,35.8,9.86,0.00,0.00
15min,AgWx,beryljct,423,27JAN2019:23:00:00,28.3,12.9,27.3,27.1,27.3,27.7,27.1,90,91,89,0.454,24.8,25.1,24.4,0.658,2.1,180,5.6,4.6,-0.00012,-0.00015,.,34.4,25,0,0,35.7,9.86,0.00,0.00
15min,AgWx,beryljct,423,27JAN2019:23:15:00,28.0,12.9,27.2,26.8,26.8,27.4,26.4,91,92,91,0.448,24.6,25.3,24.1,1.973,2.8,169,7.8,4.8,-0.00010,-0.00012,.,34.4,24,0,0,35.6,9.87,0.00,0.00
15min,AgWx,beryljct,423,27JAN2019:23:30:00,27.9,12.88,28.2,27.4,26.7,27.4,26.1,91,92,90,0.462,24.4,25.2,23.7,3.968,3.5,182,8.4,4.5,-0.00009,-0.00010,.,34.4,24,0,0,35.6,9.86,0.00,0.00
15min,AgWx,bigpiney,439,27JAN2019:00:00:00,28.2,12.76,28.8,29.0,30.1,31.3,29.0,66,68,64,0.367,20.2,21.1,19.4,1.381,4.1,346,34,10.6,-0.00000,0.00001,28.0,29.2,8,0,0,0.0,0.06,0.00,0.00
15min,AgWx,bigpiney,439,27JAN2019:00:15:00,27.8,12.76,29.5,29.2,28.6,29.6,27.9,69,70,67,0.372,19.8,20.6,18.8,0.965,0.5,23,74,2.6,-0.00019,-0.00028,28.0,29.2,8,0,0,0.0,0.06,0.00,0.00
15min,AgWx,bigpiney,439,27JAN2019:00:30:00,27.2,12.75,29.5,29.9,28.8,29.9,27.6,69,71,67,0.383,20.0,20.8,18.7,1.403,1.6,288,80,6.0,-0.00012,-0.00015,28.0,29.3,8,0,0,0.0,0.06,0.00,0.00
15min,AgWx,bigpiney,439,27JAN2019:00:45:00,26.8,12.74,30.9,29.6,29.7,30.5,28.6,67,69,65,0.380,20.1,20.9,18.8,11.4,4.1,352,56,13.3,-0.00001,0.00000,28.0,29.2,8,0,0,0.0,0.06,0.00,0.00
15min,AgWx,bigpiney,439,27JAN2019:01:00:00,26.9,12.73,27.9,28.2,29.3,30.0,28.2,68,69,66,0.363,20.1,21.0,19.3,9.89,8.4,355,20,15.2,0.00007,0.00010,28.0,29.3,8,0,0,0.0,0.06,0.00,0.00
15min,AgWx,bigpiney,439,27JAN2019:01:15:00,27.1,12.74,27.1,26.4,27.2,28.1,26.4,71,73,70,0.353,19.2,20.0,18.5,4.801,6.6,352,14,9.5,0.00003,0.00005,28.0,29.3,8,0,0,0.0,0.06,0.00,0.00
15min,AgWx,bigpiney,439,27JAN2019:01:30:00,26.9,12.72,21.4,21.6,24.7,26.4,21.6,74,77,72,0.307,17.5,18.9,15.4,5.568,4.9,310,33,6.3,-0.00001,-0.00000,28.0,29.2,8,0,0,0.0,0.06,0.00,0.00
15min,AgWx,bigpiney,439,27JAN2019:01:45:00,26.1,12.71,25.9,25.3,23.9,25.4,21.5,77,81,75,0.347,17.8,18.5,15.7,3.836,3.1,304,48,5.7,-0.00006,-0.00007,28.0,29.2,8,0,0,0.0,0.06,0.00,0.00
15min,AgWx,bigpiney,439,27JAN2019:02:00:00,25.3,12.71,20.1,20.3,22.5,25.7,20.3,77,80,72,0.299,16.3,18.6,14.9,4.209,5.2,255,49,8.2,-0.00001,-0.00001,28.0,29.3,8,0,0,0.0,0.06,0.00,0.00
15min,AgWx,bigpiney,439,27JAN2019:02:15:00,24.4,12.7,20.6,20.6,20.9,22.0,20.0,80,82,77,0.304,15.6,16.6,14.8,1.929,3.6,250,9.3,5.1,-0.00005,-0.00005,28.0,29.2,8,0,0,0.0,0.06,0.00,0.00
15min,AgWx,bigpiney,439,27JAN2019:02:30:00,23.4,12.7,18.3,17.6,19.4,22.0,16.9,80,85,74,0.283,14.4,17.3,11.9,4.121,3.6,231,14,5.7,-0.00005,-0.00005,28.0,29.2,8,0,0,0.0,0.06,0.00,0.00
15min,AgWx,bigpiney,439,27JAN2019:02:45:00,22.3,12.69,16.8,17.6,18.1,19.2,17.2,84,86,81,0.274,14.0,15.2,12.9,3.288,3.6,227,13,5.8,-0.00005,-0.00006,28.0,29.4,8,0,0,0.0,0.06,0.00,0.00
15min,AgWx,bigpiney,439,27JAN2019:03:00:00,21.2,12.68,20.3,19.9,19.0,21.6,16.2,83,89,78,0.306,14.8,17.9,11.4,4.669,4.3,235,9.2,6.2,-0.00004,-0.00004,27.9,29.2,8,0,0,0.0,0.06,0.00,0.00
15min,AgWx,bigpiney,439,27JAN2019:03:15:00,20.4,12.68,19.8,19.8,18.9,21.5,16.3,83,88,75,0.299,14.6,17.4,10.1,5.108,4.8,197,14,5.9,-0.00004,-0.00004,27.9,29.2,8,0,0,0.0,0.06,0.00,0.00
15min,AgWx,bigpiney,439,27JAN2019:03:30:00,19.7,12.67,21.2,18.4,18.2,19.9,16.6,83,87,80,0.300,14.0,15.6,11.8,3.003,3.9,215,18,5.4,-0.00005,-0.00005,27.9,29.3,8,0,0,0.0,0.06,0.00,0.00
15min,AgWx,bigpiney,439,27JAN2019:03:45:00,19.1,12.66,19.1,19.3,19.0,20.8,17.2,84,88,75,0.302,14.9,16.7,11.0,1.929,3.0,202,25,4.4,-0.00007,-0.00008,27.9,29.3,8,0,0,0.0,0.06,0.00,0.00
15min,AgWx,bigpiney,439,27JAN2019:04:00:00,18.7,12.65,17.5,17.3,18.0,20.5,14.8,83,88,76,0.285,13.6,16.2,8.9,3.749,3.5,179,19,5.2,-0.00006,-0.00006,27.9,29.2,8,0,0,0.0,0.06,0.00,0.00
15min,AgWx,bigpiney,439,27JAN2019:04:15:00,18.1,12.65,14.7,15.1,15.4,17.6,13.9,85,88,81,0.254,11.6,14.1,9.4,4.275,3.8,216,15,6.6,-0.00005,-0.00005,27.8,29.2,8,0,0,0.0,0.06,0.00,0.00
15min,AgWx,bigpiney,439,27JAN2019:04:30:00,17.6,12.64,14.7,14.5,13.8,15.0,12.9,86,88,83,0.254,10.4,11.6,8.9,5.897,4.4,238,11,6.5,-0.00004,-0.00004,27.8,29.3,8,0,0,0.0,0.06,0.00,0.00
15min,AgWx,bigpiney,439,27JAN2019:04:45:00,17.3,12.63,14.9,14.8,14.9,15.8,14.4,86,88,85,0.253,11.6,12.7,10.8,5.678,5.2,233,7.6,7.3,-0.00003,-0.00003,27.8,29.2,8,0,0,0.0,0.06,0.00,0.00
15min,AgWx,bigpiney,439,27JAN2019:05:00:00,17.1,12.62,12.5,12.4,13.5,14.8,12.4,86,87,84,0.231,10.0,11.2,8.8,5.437,5.1,229,7.7,6.5,-0.00003,-0.00003,27.7,29.2,8,0,0,0.0,0.06,0.00,0.00
15min,AgWx,bigpiney,439,27JAN2019:05:15:00,16.9,12.61,14.1,13.4,13.3,14.4,12.3,87,88,85,0.241,10.1,11.3,9.0,5.152,5.5,230,9.5,6.9,-0.00003,-0.00003,27.7,29.2,8,0,0,0.0,0.06,0.00,0.00
15min,AgWx,bigpiney,439,27JAN2019:05:30:00,16.8,12.61,13.4,13.8,14.3,14.7,13.4,87,88,85,0.240,11.0,11.6,10.0,4.954,4.3,228,7.5,6.7,-0.00004,-0.00005,27.7,29.1,8,0,0,0.0,0.06,0.00,0.00
15min,AgWx,bigpiney,439,27JAN2019:05:45:00,16.6,12.6,13.6,12.9,12.8,13.7,12.5,86,87,84,0.236,9.4,9.9,9.0,2.828,4.3,220,8.4,5.3,-0.00004,-0.00004,27.7,29.2,8,0,0,0.0,0.06,0.00,0.00
15min,AgWx,bigpiney,439,27JAN2019:06:00:00,16.4,12.57,11.9,12.4,12.8,13.2,12.4,87,87,86,0.230,9.5,10.1,9.0,4.319,2.9,217,9.0,4.4,-0.00006,-0.00007,27.6,29.2,8,0,0,0.0,0.06,0.00,0.00
15min,AgWx,bigpiney,439,27JAN2019:06:15:00,16.0,12.56,11.0,9.8,10.4,12.2,9.2,85,87,85,0.206,6.9,8.8,5.7,5.612,5.0,215,7.8,7.0,-0.00003,-0.00003,27.6,29.1,8,0,0,0.0,0.06,0.00,0.00
15min,AgWx,bigpiney,439,27JAN2019:06:30:00,15.3,12.56,11.7,11.1,10.5,11.1,9.8,87,89,86,0.221,7.4,8.2,6.7,2.674,4.0,222,6.2,5.7,-0.00004,-0.00005,27.6,29.1,8,0,0,0.0,0.06,0.00,0.00
15min,AgWx,bigpiney,439,27JAN2019:06:45:00,14.9,12.56,12.3,11.3,11.1,11.4,10.8,87,88,87,0.221,8.0,8.4,7.7,5.744,4.0,230,12,6.9,-0.00004,-0.00005,27.5,29.1,8,0,0,0.0,0.06,0.00,0.00
15min,AgWx,bigpiney,439,27JAN2019:07:00:00,14.9,12.56,14.9,13.9,12.8,13.9,11.4,88,89,87,0.251,9.7,11.0,8.3,4.845,3.5,223,12,5.7,-0.00005,-0.00006,27.5,29.1,8,0,0,0.0,0.06,0.00,0.00
15min,AgWx,bigpiney,439,27JAN2019:07:15:00,15.1,12.55,15.1,15.2,14.8,15.2,14.0,87,89,86,0.261,11.6,12.1,11.1,0.723,4.0,212,16,6.3,-0.00005,-0.00005,27.5,29.1,8,0,0,0.0,0.06,0.00,0.00
15min,AgWx,bigpiney,439,27JAN2019:07:30:00,15.5,12.55,12.5,13.5,14.2,15.3,13.0,86,88,82,0.242,10.8,12.5,8.9,1.008,1.4,296,74,4.0,-0.00010,-0.00013,27.4,29.1,8,1,0,0.0,0.06,0.00,0.00
15min,AgWx,bigpiney,439,27JAN2019:07:45:00,15.6,12.55,15.2,12.9,12.9,14.2,11.2,87,90,85,0.246,9.7,11.4,7.8,1.052,2.1,42,56,4.2,-0.00008,-0.00009,27.4,29.0,8,3,0,0.0,0.06,0.00,0.00
15min,AgWx,bigpiney,439,27JAN2019:08:00:00,15.5,12.59,14.1,13.7,13.5,14.1,13.0,90,92,88,0.256,11.1,12.1,10.2,1.184,1.2,28,41,2.4,-0.00009,-0.00009,27.4,29.0,8,10,0,0.0,0.06,0.00,0.00
15min,AgWx,bigpiney,439,27JAN2019:08:15:00,15.3,12.73,14.1,14.1,13.6,14.3,12.3,90,91,87,0.259,11.1,12.1,9.1,2.521,1.7,80,41,3.4,-0.00006,-0.00005,27.3,29.0,8,24,0,0.0,0.06,0.00,0.00
15min,AgWx,bigpiney,439,27JAN2019:08:30:00,15.3,13,13.2,12.8,12.4,14.1,11.6,89,90,88,0.244,9.8,11.7,8.7,3.157,1.8,295,48,3.7,0.00001,0.00002,27.3,29.0,8,44,0,0.0,0.06,0.00,0.00
15min,AgWx,bigpiney,439,27JAN2019:08:45:00,15.3,13.29,14.4,14.0,13.4,14.1,12.8,90,90,89,0.257,10.9,11.6,10.2,1.403,1.6,252,12,5.0,0.00008,0.00010,27.3,29.0,8,52,0,0.0,0.06,0.00,0.00